#timestamp,LO_Frequency,Hit 
1505894415.7,286046988.9,N
1505894435.5,286046994.7,N
1505894455.3,286046996.5,N
1505894475.2,286047004.1,N
1505894495.9,286047002.2,N
1505894515.7,286047000.4,N
1505894535.6,286046994.4,N
1505894555.4,286046991.2,N
1505894575.2,286046991.6,N
1505894595.0,286046987.2,N
1505894595.9,286046987.2,N
1505894615.8,286046989.0,N
1505894635.6,286046997.8,N
1505894655.4,286046997.1,N
1505894675.3,286046999.3,N
1505894695.1,286046998.7,N
1505894696.0,286046998.7,N
1505894715.8,286046999.6,N
1505894735.7,286046995.4,N
1505894755.5,286046994.0,N
1505894775.3,286046994.7,N
1505894795.2,286046994.1,N
1505894815.9,286046994.7,N
1505894835.7,286046990.6,N
1505894855.5,286046986.9,N
1505894875.4,286046986.1,N
1505894895.2,286046984.3,N
1505894915.0,286046987.3,N
1505894915.9,286046987.3,N
1505894935.8,286046990.0,N
1505894955.6,286046985.8,N
1505894975.4,286046988.4,N
1505894995.3,286046984.4,N
1505895015.1,286046984.9,N
1505895016.0,286046984.9,N
1505895035.8,286046983.9,P
1505895055.7,286046999.6,N
1505895075.5,286047002.7,N
1505895095.3,286047002.4,N
1505895115.2,286047003.8,N
1505895135.9,286047002.6,N
1505895155.7,286047002.2,N
1505895175.6,286047005.8,N
1505895195.4,286047008.5,N
1505895215.2,286047007.8,N
1505895235.0,286047003.6,N
1505895236.0,286047003.6,N
1505895255.8,286046997.3,N
1505895275.6,286047000.0,N
1505895295.4,286046999.2,N
1505895315.3,286046993.6,N
1505895335.1,286046992.0,N
1505895355.8,286046992.7,N
1505895375.7,286046994.4,N
1505895395.5,286046999.4,N
1505895415.3,286046999.5,N
1505895435.2,286046993.0,N
1505895455.9,286046994.8,N
1505895475.7,286046993.4,N
1505895495.6,286046994.6,N
1505895515.4,286046996.1,N
1505895535.2,286046996.0,N
1505895555.0,286046994.1,N
1505895555.9,286046994.1,N
1505895575.8,286046991.9,N
1505895595.6,286046992.2,N
1505895615.4,286046993.6,N
1505895635.3,286046997.1,N
1505895655.1,286046998.8,N
1505895675.8,286047002.3,N
1505895695.7,286047002.0,N
1505895715.5,286046998.3,N
1505895735.3,286047000.8,N
1505895755.2,286046990.1,N
1505895775.9,286046990.9,N
1505895795.7,286046985.8,P
1505895815.6,286046985.3,N
1505895835.4,286046989.9,N
1505895855.2,286046990.0,N
1505895875.1,286046988.7,N
1505895876.0,286046988.7,P
1505895895.8,286047005.3,P
1505895915.6,286047005.6,N
1505895935.5,286047007.5,N
1505895955.3,286047003.1,N
1505895975.1,286046997.6,N
1505895995.9,286046995.7,N
1505896015.7,286046998.3,N
1505896035.5,286047001.0,N
1505896055.3,286047000.2,N
1505896075.2,286046999.9,N
1505896095.0,286046995.7,N
1505896095.9,286046995.7,N
1505896115.7,286046998.0,N
1505896135.6,286046997.6,N
1505896155.4,286046995.1,N
1505896175.2,286046990.6,N
1505896195.1,286046993.1,N
1505896196.0,286046993.1,N
1505896215.8,286046986.0,N
1505896235.6,286046982.8,P
1505896255.5,286046987.7,N
1505896275.3,286046990.8,N
1505896295.1,286046992.6,N
1505896315.9,286046994.6,N
1505896335.7,286046994.6,N
1505896355.5,286046993.5,N
1505896375.4,286046996.8,N
1505896395.2,286046995.5,N
1505896415.0,286046999.2,N
1505896415.9,286046999.2,N
1505896435.8,286046999.5,N
1505896455.6,286046995.7,N
1505896475.4,286046988.5,N
1505896495.3,286046987.2,N
1505896515.1,286046985.1,P
1505896516.0,286046985.1,P
1505896535.8,286046993.9,N
1505896555.7,286047000.8,N
1505896575.5,286047005.7,N
1505896595.3,286047005.8,N
1505896615.2,286047004.8,N
1505896635.9,286047004.3,N
1505896655.7,286046999.5,N
1505896675.5,286046996.6,N
1505896695.4,286046998.3,N
1505896715.2,286046994.3,N
1505896735.0,286046990.5,N
1505896735.9,286046990.5,N
1505896755.8,286046993.5,N
1505896775.6,286046995.5,N
1505896795.4,286046996.7,N
1505896815.3,286046992.9,N
1505896835.1,286046990.4,N
1505896836.0,286046990.4,N
1505896855.8,286046986.9,N
1505896875.7,286046986.7,N
1505896895.5,286046987.5,N
1505896915.3,286046991.3,N
1505896935.2,286046992.4,N
1505896955.9,286046993.7,N
1505896975.7,286046993.2,N
1505896995.5,286046984.0,N
1505897015.4,286046982.4,N
1505897035.2,286046988.3,N
1505897055.0,286046990.5,N
1505897055.9,286046990.5,N
1505897075.8,286046994.7,N
1505897095.6,286046994.9,N
1505897115.4,286046992.6,N
1505897135.3,286046987.9,N
1505897155.1,286046986.5,N
1505897156.0,286046986.5,N
1505897175.8,286046988.4,N
1505897195.7,286046986.8,P
1505897215.5,286046992.4,P
1505897235.3,286046996.3,N
1505897255.2,286046996.3,N
1505897275.9,286046994.6,N
1505897295.7,286046996.3,N
1505897315.6,286046997.1,N
1505897335.4,286046996.3,N
1505897355.2,286046988.1,P
1505897375.1,286046987.5,P
1505897376.0,286046987.5,P
1505897395.8,286046987.1,P
1505897415.6,286047005.6,P
1505897435.5,286047006.2,N
1505897455.3,286047008.6,N
1505897475.1,286047010.0,N
1505897495.9,286047009.8,N
1505897515.7,286047010.3,N
1505897535.5,286047010.5,N
1505897555.4,286047010.3,N
1505897575.2,286047006.6,N
1505897595.0,286047002.4,N
1505897595.9,286047002.4,N
1505897615.8,286046998.5,N
1505897635.6,286047001.9,N
1505897655.4,286047006.8,N
1505897675.2,286047005.2,N
1505897695.1,286047007.5,N
1505897696.0,286047007.5,N
1505897715.8,286047006.2,N
1505897735.6,286047008.1,N
1505897755.5,286047007.6,N
1505897775.3,286047003.4,N
1505897795.1,286046999.3,N
1505897815.9,286047000.0,N
1505897835.7,286047002.7,N
1505897855.5,286047000.6,N
1505897875.4,286047004.1,N
1505897895.2,286047003.5,N
1505897915.0,286047002.5,N
1505897915.9,286047002.5,N
1505897935.8,286046998.5,N
1505897955.6,286046995.0,N
1505897975.4,286046995.4,N
1505897995.3,286046997.9,N
